DELTA 2 R/B (1) - Orbit

View from above orbital plane
View from above orbital plane
View from above satellite
View from above satellite

Ground track
Ground track

The orbit data is extracted from the following two-line orbital elements,

1 27665U 03005C   13143.44597361  .00000097  00000-0  72411-4 0  7606
2 27665 039.5752 113.5008 0007970 328.8454 180.4013 14.28047301538456
Epoch (UTC): 23 May 2013 10:42:12
Eccentricity: 0.0007970
inclination: 39.5752°
perigee height: 792 km
apogee height: 804 km
right ascension of ascending node: 113.5008°
argument of perigee: 328.8454°
revolutions per day: 14.28047301
mean anomaly at epoch: 180.4013°
orbit number at epoch: 53845

The dashed part of the orbit path shows where the satellite is in the earth's shadow,  

Developed and maintained by Chris Peat, Heavens-Above GmbH. Please read the updated FAQ before sending e-mail. Imprint. DLR